Вернуться в каталог

STARLINK-6090

АктивенСвязьVLEO
NORAD 56095·PAYLOAD·🇺🇸 United States

Запущен Mar 29, 2023 с Cape Canaveral Space Force Station

Loading…

Ближайшие Пролёты (ближайшие 24 часа)

TLE

СвежийSource: CelesTrak SupGP

Эпоха: Sep 15, 2026, 03:11 UTC

1 56095C 23046C   26258.13312500  .00033478  00000+0  12127-2 0  2585
2 56095  43.0003 171.4053 0001530 254.1060 254.1169 15.27558152    15

Отслеживайте STARLINK-6090 в реальном времени с AllMySat

Download on the App Store